Showing default

ESSA 2 (OT-2), 2091

Orbit data source: Space-Track

ESSA 2 (OT-2), 2091 is a payload satellite owned by ESSA (US) in SSO that was launched on Mon, 28 Feb 1966 UTC via a THOR DELTA E launch vehicle from the Air Force Eastern Test Range (AFETR). Payload-class satellites include a variety of spacecraft equipped with specific instruments for various scientific and technological missions. These include communications satellites like Starlink; space stations such as the ISS; scientific satellites like the Hubble; Earth observation satellites from companies like Planet Labs, Umbra, and HawkEye 360; GPS; miniature CubeSats for education and research; and military/defense satellites.

Loading next visibility...
Identifier
2091, 1966-016A
Orbit
SSO
Country
Flag of USUS
Related business
Manufacturer
RCA/East Windsor
Mission
Non-operational Civil Weather
Bus & Motor
TIROS I, Unknown motor
Mass
130 kg wet, 130 kg dry
Launch date (UTC)
1966-02-28 (60 years ago)
Launch vehicle
THOR DELTA E
Launch site
Air Force Eastern Test Range (AFETR)
Object type
Payload
Rocket body
Debris
Shape & HBR
Cyl, 0.5 m
Radar Cross Section
0.920 m², Medium (>0.1 m² and < 1m²)

Expand to show TLE details & history
Last TLE update: 13 hours ago

TLE from 13 hours ago
0 ESSA 2 (OT-2)
1 02091U 66016A   25242.04180920 -.00000031  00000-0  61948-4 0  9997
2 02091 101.2366 153.3916 0039058 126.8512 244.0951 12.69424116756684
Epoch: 2025-08-30T01:00Z
TLE epoch observation values (Epoch: 2025-08-30T01:00:12.314Z)
Latitude
10.2927°
Longitude
157.80115°
Altitude
1,399.508 km
Speed
7.155 km/s
True Right ascension
10h 05m 20s
True Declination
10° 14' 15"
Sunlit
Object was in daylight at epoch
Visualization orbit readout
Latitude
Unknown
Longitude
Unknown
Altitude
Unknown
Speed
Unknown
Apparent Right ascension
Unknown
Apparent Declination
Unknown
Sunlit
N/A
Visualization observer readout
Local Sidereal Time
05:43:09
Azimuth
Unknown
Elevation
Unknown
Doppler factor
Unknown
Orbital elements
Apogee altitude
1,412.087 km
Perigee altitude
1,351.47 km
Semi-major axis
7,759.915 km
Eccentricity
0.00391
Inclination
101.2366°
RAAN
153.3916°
Arg. of periapsis
126.8512°
True anomaly
243.69336°
Mean anomaly
244.0951°
Eccentric anomaly
243.89414°
Mean motion
3.1751 °/min
Orbital period
113.38 mins
BSTAR
0.000061948
Loading maneuver chart data...
Computing Atmospheric mass density...
Loading historical data...
Loading historical data...
Loading historical data...
Loading historical data...
Loading historical data...
Loading historical data...
Loading historical data...
Other satellites on launch #16 in the year 1966 (1966-02-28 UTC)

Documentation

Showing up to 5 results
|